Regional Weather Roundup
Issued by NWS Portland, ME

Current Version | Previous Version | Text Only | Print | Product List | Glossary Off
Versions: 1 2 3 4 5 6 7 8 9 10 11 12 13 14 15 16 17 18 19 20 21 22 23 24 25 26 27 28 29 30 31 32 33 34 35 36 37 38 39 40 41 42 43 44 45 46 47 48 49 50

000
ASUS41 KGYX 300805
RWRGYX
WEATHER ROUNDUP FOR MAINE AND NEW HAMPSHIRE
NATIONAL WEATHER SERVICE GRAY ME
400 AM EDT SAT JUL 30 2016

MEZ002-005-006-010-012-015-018-020-021-024-026-027-029-300900-
MAINE

CITY           SKY/WX    TMP DP  RH WIND       PRES   REMARKS
PORTLAND       PTCLDY    65  59  81 CALM      29.94S
SANFORD          N/A     57  57 100 SW3       29.95S
BAR HARBOR     MOCLDY    64  64 100 CALM      29.91R FOG
WISCASSET      CLOUDY    63  60  90 CALM      29.94R
ROCKLAND       MOCLDY    59  57  94 CALM      29.92R FOG
FRYEBURG       CLEAR     57  57 100 CALM      29.97S FOG
LEWISTONAUBURN CLEAR     63  58  83 N3        29.96R
AUGUSTA        CLEAR     65  57  75 NW7       29.95R
WATERVILLE     CLEAR     65  57  75 NW9       29.92R
BANGOR         PTCLDY    66  58  75 NW6       29.93R
GREENVILLE       N/A     59  54  83 NW7       29.96R
MILLINOCKET    CLEAR     58  56  93 CALM      29.95R
HOULTON        CLEAR     56  56 100 CALM      29.92R
PRESQUE ISLE   CLEAR     54  54 100 CALM      29.95R
FRENCHVILLE    CLEAR     56  51  84 NW8       29.95R
CARIBOU        CLOUDY    59  54  83 NW3       29.93R
$$

NHZ002-005-008-009-011-012-014-300900-
NEW HAMPSHIRE

CITY           SKY/WX    TMP DP  RH WIND       PRES   REMARKS
PORTSMOUTH     PTCLDY    67  63  87 NW2       29.94R
ROCHESTER      CLEAR     65  60  84 NW3       29.95R
NASHUA         CLEAR     67  62  84 NW5       29.96R
MANCHESTER     CLEAR     69  59  70 N7        29.95R
CONCORD        CLEAR     64  59  83 NW6       29.97S
LACONIA        CLEAR     64  57  78 CALM      29.98S
PLYMOUTH       FAIR      60  57  87 N5        29.99S
BERLIN         FOG       49  47  93 CALM      30.03S VSB 1/4
WHITEFIELD     FOG       50  48  93 CALM      30.03S VSB 1/2
JAFFREY        PTCLDY    59  57  93 CALM      30.01R
KEENE          CLOUDY    62  62 100 CALM      30.00R FOG
LEBANON        CLEAR     57  53  86 CALM      30.01R FOG
MT WASHINGTON  PTCLDY    45  43  93 NW21        N/A
$$

VTZ005-007-008-300900-
VERMONT

CITY           SKY/WX    TMP DP  RH WIND       PRES   REMARKS
ST JOHNSBURY     N/A     57  53  86 MISG      30.01S
MONTPELIER     CLOUDY    53  52  96 CALM      30.07S FOG
BURLINGTON     FAIR      61  57  87 NE3       30.02R
$$

MAZ007-012-024-CTZ003-RIZ002-NYZ038-NYZ072-300900-
SOUTHERN NEW ENGLAND AND NY

CITY           SKY/WX    TMP DP  RH WIND       PRES   REMARKS
BOSTON         PTCLDY    73  67  81 NW5       29.94R
WORCESTER      CLEAR     65  60  84 W3        29.99R
NANTUCKET      PTCLDY    70  67  90 N7        29.92R
PROVIDENCE     CLEAR     70  67  90 NW3       29.94S
HARTFORD       CLEAR     68  63  84 N8        29.96S
ALBANY         CLOUDY    65  58  78 N6        30.00R
NEW YORK CITY  PTCLDY    78  70  76 SW5       29.93S
$$

ANZ081-ANZ082-ANZ150-NHZ014-MEZ023>029-300900-
COASTAL MARINE OBSERVATIONS

STATION/POSITION TIME  TEMP    WIND        PRES    WAVE
                       AIR SEA DIR/SP/G            HT/PER
                 (UTC) (F)     (DEG/KT/KT) (MB)    (FT/S)
MOUNT DESERT ROC 0800   60     280/  6/  6 1012.7R
MATINICUS ROCK   0700   61     240/  1/  2 1012.4R
ISLE OF SHOALS   0700   69     290/  2/  3 1013.3R
JEFFREYS LEDGE   0708      69                N/A     1/14
GEORGES BANK BUO 0650   66 68              1009.9    3/ 6
$$

.............KEY..............
   WCI - WIND CHILL
   TC  - TEMPERATURE IN CELSIUS
   VSB - VISIBILITY IN MILES
   HX  - HEAT INDEX
   FAIR- INDICATES FEW OR NO CLOUDS BELOW 12,000 FT, WITH NO
         SIGNIFICANT WEATHER AND/OR OBSTRUCTIONS TO VISIBILITY.






USA.gov is the U.S. government's official web portal to all federal, state and local government web resources and services.